Waarnemingen

Advertentie
Mijn weer
Ronneby, Zweden (2664): temperatuur & dauwpunt: 11.10.2017 09:00:00 - 17.10.2017 09:00:00 (CEST)Ronneby, Zweden (2664): windsnelheid & windstoten: 11.10.2017 09:00:00 - 17.10.2017 09:00:00 (CEST)Ronneby, Zweden (2664): windrichting: 11.10.2017 09:00:00 - 17.10.2017 09:00:00 (CEST)Ronneby, Zweden (2664): luchtdruk: 11.10.2017 09:00:00 - 17.10.2017 09:00:00 (CEST)Ronneby, Zweden (2664): zicht: 11.10.2017 09:00:00 - 17.10.2017 09:00:00 (CEST)Ronneby, Zweden (2664): neerslag: 11.10.2017 09:00:00 - 17.10.2017 09:00:00 (CEST)
Datum & Tijd tt [°C] td [°C] ff [km/u] ff [kn] fx [km/u] fx [kn] dd ppp [hPa] vv [km] rr [mm]
17.10.2017 09:00:00 12,2 12,0 9 5 14 8 Z 1015,6 0,9 0,0
17.10.2017 08:00:00 12,1 11,8 9 5 18 10 Z 1016,1 2,5 0,0
17.10.2017 07:00:00 12,8 12,3 11 6 22 12 ZZW 1016,5 4,0 0,0
17.10.2017 06:00:00 12,5 12,3 11 6 18 10 ZZW 1017,2 3,0 0,0
17.10.2017 05:00:00 11,1 10,9 2 1 11 6 - 1017,6 2,5 0,0
17.10.2017 04:00:00 11,4 11,2 5 3 14 8 ZZW 1018,3 2,6 0,0
17.10.2017 03:00:00 12,1 11,8 4 2 7 4 ZW 1018,9 3,8 0,0
17.10.2017 02:00:00 12,1 11,8 4 2 7 4 ZZW 1019,2 2,9 0,0
17.10.2017 01:00:00 12,7 12,2 4 2 7 4 - 1019,7 7 0,0
17.10.2017 00:00:00 13,3 12,8 5 3 11 6 ZW 1019,7 10 0,0
16.10.2017 23:00:00 13,5 12,9 5 3 7 4 ZW 1019,8 10 0,0
16.10.2017 22:00:00 13,7 12,9 4 2 7 4 ZW 1020,0 10 0,0
16.10.2017 21:00:00 14,1 13,1 5 3 11 6 WZW 1019,6 10 0,0
16.10.2017 20:00:00 14,4 13,1 8 4 11 6 W 1019,4 10 0,0
16.10.2017 19:00:00 14,6 13,1 9 5 18 10 WZW 1018,9 10 0,0
16.10.2017 18:00:00 15,0 12,9 11 6 22 12 WZW 1018,2 10 0,0
16.10.2017 17:00:00 15,4 13,1 11 6 22 12 W 1017,9 10 0,0
16.10.2017 16:00:00 15,7 12,8 11 6 25 14 W 1017,5 10 0,0
16.10.2017 15:00:00 15,9 13,0 11 6 25 14 W 1017,4 10 0,0
16.10.2017 14:00:00 15,5 13,3 11 6 25 14 W 1017,4 10 0,0
16.10.2017 13:00:00 15,1 13,5 9 5 18 10 W 1017,4 10 0,0
16.10.2017 12:00:00 14,7 13,6 11 6 18 10 W 1017,3 10 0,0
16.10.2017 11:00:00 14,0 13,8 11 6 18 10 W 1017,0 7 0,0
16.10.2017 10:00:00 13,3 13,3 9 5 14 8 WZW 1016,6 3,5 0,0
16.10.2017 09:00:00 12,7 12,7 9 5 14 8 WZW 1016,3 3,0 0,0
16.10.2017 08:00:00 11,7 11,7 5 3 11 6 ZW 1015,8 1,5 0,0
16.10.2017 07:00:00 12,5 12,5 8 4 18 10 ZW 1016,0 3,0 0,0
16.10.2017 06:00:00 12,3 12,3 9 5 18 10 ZW 1016,3 0,1 0,0
16.10.2017 05:00:00 12,4 12,4 8 4 11 6 WZW 1016,6 0,1 0,0
16.10.2017 04:00:00 12,6 12,6 4 2 14 8 - 1017,0 0,1 0,0
16.10.2017 03:00:00 12,7 12,7 9 5 14 8 ZZW 1017,5 0,1 0,0
16.10.2017 02:00:00 12,7 12,7 9 5 18 10 ZZW 1018,4 0,2 0,0
16.10.2017 01:00:00 12,6 12,6 11 6 18 10 ZZW 1018,9 0,2 0,0
16.10.2017 00:00:00 12,5 12,3 9 5 14 8 ZZW 1019,5 0,8 0,0
15.10.2017 23:00:00 12,5 12,3 9 5 22 12 ZZW 1020,3 2,5 0,0
15.10.2017 22:00:00 12,6 12,4 11 6 25 14 ZW 1020,9 4,0 0,0
15.10.2017 21:00:00 13,1 12,8 16 9 29 16 ZW 1020,8 3,5 0,0
15.10.2017 20:00:00 13,1 12,6 9 5 18 10 ZZW 1021,2 8 0,0
15.10.2017 19:00:00 13,1 12,6 9 5 14 8 ZZW 1021,7 10 0,0
15.10.2017 18:00:00 13,2 11,9 5 3 14 8 Z 1021,7 10 0,0
15.10.2017 17:00:00 13,8 11,3 11 6 18 10 ZZW 1022,1 10 0,0
15.10.2017 16:00:00 15,7 11,5 9 5 18 10 ZW 1022,2 10 0,0
15.10.2017 15:00:00 16,1 10,8 11 6 18 10 WZW 1022,0 10 0,0
15.10.2017 14:00:00 14,5 10,5 9 5 18 10 W 1022,3 10 0,0
15.10.2017 13:00:00 14,0 10,4 11 6 18 10 W 1022,4 10 0,0
15.10.2017 12:00:00 13,6 10,4 11 6 22 12 W 1022,4 10 0,0
15.10.2017 11:00:00 12,4 10,3 11 6 18 10 W 1022,6 10 0,0
15.10.2017 10:00:00 11,2 10,4 13 7 18 10 W 1022,0 10 0,0
15.10.2017 09:00:00 10,5 10,0 13 7 18 10 W 1021,7 10 0,0
15.10.2017 08:00:00 10,3 9,8 8 4 14 8 W 1021,3 10 0,0
15.10.2017 07:00:00 10,6 10,0 8 4 14 8 W 1020,8 10 0,0
15.10.2017 06:00:00 11,1 10,5 8 4 14 8 W 1020,1 10 0,0
15.10.2017 05:00:00 11,7 11,1 9 5 18 10 W 1019,5 10 0,0
15.10.2017 04:00:00 12,7 11,8 11 6 22 12 W 1019,1 10 0,0
15.10.2017 03:00:00 12,8 12,3 15 8 25 14 WNW 1018,5 10 0,0
15.10.2017 02:00:00 13,3 13,1 2 1 11 6 WNW 1018,1 10 0,0
15.10.2017 01:00:00 13,4 13,2 8 4 14 8 W 1018,1 6 0,0
15.10.2017 00:00:00 13,4 13,1 8 4 18 10 W 1018,0 2,2 0,0
14.10.2017 23:00:00 14,0 13,2 13 7 25 14 W 1017,9 10 0,0
14.10.2017 22:00:00 14,4 13,3 16 9 32 18 W 1018,3 10 0,0
14.10.2017 21:00:00 14,6 13,3 21 11 32 18 W 1018,3 10 0,0
14.10.2017 20:00:00 14,9 13,8 15 8 25 14 W 1018,3 10 0,0
14.10.2017 19:00:00 15,1 14,0 18 10 32 18 W 1017,7 10 0,0
14.10.2017 18:00:00 15,7 14,6 16 9 29 16 W 1017,1 10 0,0
14.10.2017 17:00:00 16,0 15,0 21 11 32 18 W 1016,5 10 0,0
14.10.2017 16:00:00 16,6 15,1 21 11 36 19 W 1016,1 10 0,0
14.10.2017 15:00:00 16,9 15,6 18 10 36 19 W 1015,8 10 0,0
14.10.2017 14:00:00 16,5 15,7 13 7 32 18 W 1015,4 10 0,0
14.10.2017 13:00:00 16,5 15,7 15 8 29 16 W 1015,3 10 0,0
14.10.2017 12:00:00 16,6 15,6 16 9 29 16 W 1015,4 10 0,0
14.10.2017 11:00:00 15,8 15,3 9 5 18 10 WZW 1015,3 10 0,0
14.10.2017 10:00:00 15,1 14,9 13 7 22 12 WZW 1015,1 10 0,0
14.10.2017 09:00:00 14,4 14,2 9 5 18 10 WZW 1015,0 6 0,0
14.10.2017 08:00:00 14,2 14,0 9 5 18 10 ZW 1015,1 7 0,0
14.10.2017 07:00:00 13,7 13,5 11 6 18 10 WZW 1015,1 3,6 0,0
14.10.2017 06:00:00 13,0 12,8 8 4 18 10 WZW 1015,6 4,2 0,0
14.10.2017 05:00:00 12,6 12,4 9 5 18 10 ZW 1015,6 2,8 0,0
14.10.2017 04:00:00 12,4 12,2 9 5 22 12 ZW 1016,3 2,6 0,0
14.10.2017 03:00:00 12,2 12,0 11 6 25 14 ZW 1016,5 3,9 0,0
14.10.2017 02:00:00 12,0 11,7 13 7 22 12 ZW 1017,2 3,4 0,2
14.10.2017 01:00:00 11,7 11,2 11 6 22 12 ZW 1017,8 4,9 0,0
14.10.2017 00:00:00 11,5 10,7 9 5 18 10 ZZW 1018,2 10 0,0
13.10.2017 23:00:00 11,2 10,1 8 4 14 8 ZZW 1018,6 10 0,0
13.10.2017 22:00:00 11,1 9,0 8 4 14 8 Z 1019,2 10 0,0
13.10.2017 21:00:00 10,9 8,1 5 3 7 4 ZW 1019,8 10 0,0
13.10.2017 20:00:00 11,0 7,5 4 2 7 4 ZW 1019,8 10 0,0
13.10.2017 19:00:00 11,6 7,3 5 3 14 8 W 1019,8 10 0,0
13.10.2017 18:00:00 12,6 7,7 5 3 22 12 WZW 1019,5 10 0,0
13.10.2017 17:00:00 13,8 7,3 9 5 18 10 W 1019,2 10 0,0
13.10.2017 16:00:00 13,4 5,8 9 5 25 14 WNW 1019,2 10 0,0
13.10.2017 15:00:00 14,1 5,5 11 6 29 16 WNW 1018,8 10 0,0
13.10.2017 14:00:00 13,4 5,1 16 9 29 16 NW 1018,4 10 0,0
13.10.2017 13:00:00 12,4 5,6 15 8 29 16 WNW 1018,3 10 0,0
13.10.2017 12:00:00 11,2 5,3 13 7 29 16 NW 1018,2 10 0,0
13.10.2017 11:00:00 10,4 5,4 16 9 32 18 NW 1017,5 10 0,0
13.10.2017 10:00:00 9,6 5,0 15 8 29 16 NW 1016,8 10 0,0
13.10.2017 09:00:00 8,8 4,8 11 6 25 14 NW 1016,0 10 0,0
13.10.2017 08:00:00 8,2 4,8 15 8 32 18 WNW 1014,9 10 0,0
13.10.2017 07:00:00 8,9 5,3 21 11 40 21 WNW 1013,5 10 0,0
13.10.2017 06:00:00 9,3 5,7 22 12 43 23 NW 1012,3 10 0,0
13.10.2017 05:00:00 9,7 6,2 22 12 43 23 WNW 1010,9 10 0,0
13.10.2017 04:00:00 9,6 6,3 22 12 43 23 WNW 1010,0 10 0,0
13.10.2017 03:00:00 9,7 6,6 24 13 43 23 WNW 1008,9 10 0,0
13.10.2017 02:00:00 9,8 6,5 26 14 43 23 WNW 1007,7 10 0,0
13.10.2017 01:00:00 10,1 6,4 28 15 65 35 WNW 1006,7 10 0,0
13.10.2017 00:00:00 9,9 6,8 22 12 40 21 W 1006,3 10 0,0
12.10.2017 23:00:00 10,0 6,7 24 13 40 21 W 1005,8 10 0,0
12.10.2017 22:00:00 10,1 6,8 22 12 40 21 W 1005,3 10 0,0
12.10.2017 21:00:00 9,8 6,7 24 13 43 23 W 1005,1 10 0,0
12.10.2017 20:00:00 10,1 6,8 21 11 43 23 W 1005,0 10 0,0
12.10.2017 19:00:00 10,3 7,5 26 14 43 23 W 1004,4 10 0,0
12.10.2017 18:00:00 10,3 8,1 28 15 47 25 W 1004,0 10 0,0
12.10.2017 17:00:00 10,9 9,3 24 13 43 23 W 1003,1 10 0,3
12.10.2017 16:00:00 12,1 9,1 24 13 50 27 WZW 1001,8 10 0,1
12.10.2017 15:00:00 12,5 9,0 29 16 50 27 W 1001,0 10 0,0
12.10.2017 14:00:00 12,4 9,8 31 17 50 27 WZW 1000,2 10 0,0
12.10.2017 13:00:00 13,2 10,6 18 10 43 23 WZW 999,7 10 0,5
12.10.2017 12:00:00 13,1 11,2 21 11 32 18 WZW 999,6 10 0,0
12.10.2017 11:00:00 12,7 11,3 21 11 40 21 WZW 999,4 10 0,0
12.10.2017 10:00:00 12,6 11,7 18 10 40 21 ZW 999,5 10 0,0
12.10.2017 09:00:00 11,9 11,6 18 10 40 21 ZW 999,8 10 0,7
12.10.2017 08:00:00 11,5 11,0 22 12 40 21 ZZW 1000,5 5 0,4
12.10.2017 07:00:00 11,8 11,2 16 9 36 19 ZW 1001,4 5 0,0
12.10.2017 06:00:00 11,9 11,3 15 8 32 18 ZZW 1002,3 10 0,0
12.10.2017 05:00:00 12,1 11,6 15 8 25 14 ZZW 1003,0 8 0,0
12.10.2017 04:00:00 12,1 11,6 11 6 22 12 ZW 1004,0 8 0,0
12.10.2017 03:00:00 12,3 11,7 11 6 22 12 ZW 1004,7 10 0,0
12.10.2017 02:00:00 12,6 12,1 15 8 25 14 ZW 1005,1 5 0,0
12.10.2017 01:00:00 13,0 12,5 13 7 25 14 ZW 1005,5 10 0,0
12.10.2017 00:00:00 13,0 12,8 11 6 25 14 ZW 1005,8 7 0,0
11.10.2017 23:00:00 12,6 12,4 13 7 25 14 ZW 1006,1 10 0,5
11.10.2017 22:00:00 11,8 11,6 13 7 22 12 ZZW 1006,3 6 0,6
11.10.2017 21:00:00 11,9 11,7 11 6 18 10 ZZW 1006,7 5 0,0
11.10.2017 20:00:00 11,5 11,3 5 3 11 6 Z 1006,9 6 0,0
11.10.2017 19:00:00 11,3 11,0 5 3 14 8 Z 1007,0 8 0,0
11.10.2017 18:00:00 11,3 11,0 8 4 14 8 ZZW 1007,3 9 0,0
11.10.2017 17:00:00 11,8 10,9 8 4 14 8 Z 1007,4 10 0,0
11.10.2017 16:00:00 11,9 10,3 8 4 14 8 Z 1007,7 10 0,0
11.10.2017 15:00:00 12,1 10,2 9 5 14 8 ZZW 1007,9 10 0,0
11.10.2017 14:00:00 12,2 9,6 9 5 9 5 ZW 1007,9 10 0,0
11.10.2017 13:00:00 11,6 9,2 13 7 22 12 WZW 1008,2 10 0,0
11.10.2017 12:00:00 11,0 9,3 11 6 22 12 W 1008,0 10 0,0
11.10.2017 11:00:00 10,6 8,9 11 6 22 12 W 1007,6 10 0,0
11.10.2017 10:00:00 9,5 8,6 8 4 14 8 W 1007,3 10 0,0
11.10.2017 09:00:00 7,9 7,6 5 3 11 6 WNW 1006,9 10 0,0

tt = temperatuur
td = dauwpunt
ff = windsnelheid
fx = windstoten
dd = windrichting
ppp = luchtdruk
vv = zicht
rr = neerslag

Weerstations in de omgeving